Regional Weather Roundup
Issued by NWS Charleston, SC

Current Version | Previous Version | Graphics & Text | Print | Product List | Glossary On
Versions: 1 2 3 4 5 6 7 8 9 10 11 12 13 14 15 16 17 18 19 20 21 22 23 24 25 26 27 28 29 30 31 32 33 34 35 36 37 38 39 40 41 42 43 44 45 46 47 48 49 50
000 ASUS42 KCHS 172227 RWRCHS REGIONAL WEATHER ROUNDUP NATIONAL WEATHER SERVICE CHARLESTON SC 500 PM EST FRI NOV 17 2017 NOTE: "FAIR" INDICATES FEW OR NO CLOUDS BELOW 12,000 FEET WITH NO SIGNIFICANT WEATHER AND/OR OBSTRUCTIONS TO VISIBILITY. NOT ALL STATIONS ARE QUALITY CONTROLLED. USE DATA WITH CAUTION... ESPECIALLY DEWPOINT OBSERVATIONS. SCZ027-030-031-034>040-042>050-172300- ...SOUTHEAST SOUTH CAROLINA... CITY SKY/WX TMP DP RH WIND PRES REMARKS N CHARLESTON CLEAR 58 46 64 SE9 30.15R WATERFRONT PRK NOT AVBL JOHNS ISLAND FAIR 55 46 71 NE3 30.16S PINOPOLIS N/A 61 43 51 CALM 30.06S MONCKS CORNER FAIR 52 45 76 CALM 30.15S SUMMERVILLE FAIR 57 41 54 CALM 30.16S BEAUFORT MCAS CLEAR 60 51 72 E8 30.14S BEAUFORT ARPT FAIR 55 46 71 E3 30.14S HAZE HILTON HEAD IS NOT AVBL WALTERBORO CLEAR 57 41 54 CALM 30.15S ALLENDALE FAIR 57 41 54 CALM 30.13R ...SOUTHERN MIDLANDS AND PEE DEE... CITY SKY/WX TMP DP RH WIND PRES REMARKS GEORGETOWN FAIR 52 41 66 E5 30.17S KINGSTREE FAIR 52 43 71 CALM 30.16R ORANGEBURG CLEAR 60 36 40 CALM 30.14F BARNWELL N/A 61 39 44 CALM 30.15R AIKEN FAIR 59 36 41 E3 30.16S MANNING FAIR 54 43 66 MISG 30.15S COLUMBIA PTCLDY 62 33 33 SE3 30.13S SUMTER CLEAR 60 35 39 SE3 30.12S FLORENCE CLEAR 57 37 47 E3 30.15S MYRTLE BEACH CLEAR 55 41 59 SE3 30.18R N MYRTLE BEACH CLEAR 54 41 61 CALM 30.16R $$ GAZ063-065-086>088-099>101-113>116-118-119-134>141-150-172300- ...SOUTHEAST GEORGIA... CITY SKY/WX TMP DP RH WIND PRES REMARKS SAVANNAH ARPT PTCLDY 62 46 55 E10 30.13S HUNTER AAF CLEAR 61 49 64 E8 30.10S FORT STEWART CLEAR 64 50 59 E7 30.11R STATESBORO CLEAR 61 38 42 CALM 30.13S SYLVANIA CLEAR 61 45 56 CALM 30.14R CLAXTON FAIR 61 47 60 NE3 30.13R ...CSRA...CENTRAL AND FAR SOUTHEAST GEORGIA... CITY SKY/WX TMP DP RH WIND PRES REMARKS THOMSON CLEAR 56 40 53 S3 30.16S AUGUSTA-BUSH CLEAR 63 36 36 SE3 30.12S AUGUSTA-DANIEL CLEAR 65 35 33 SE5 30.13S SWAINSBORO FAIR 63 37 39 CALM 30.12F VIDALIA CLEAR 63 43 48 E5 30.11F EASTMAN FAIR 65 27 23 SE3 30.12F HAZLEHURST FAIR 65 31 27 CALM 30.10S ALMA MOCLDY 67 51 56 E3 30.11R WAYCROSS PTCLDY 65 48 52 E5 30.11R JESUP FAIR 64 52 63 CALM 30.13R BAXLEY MOCLDY 63 48 59 E3 30.11R BRUNSWICK PTCLDY 61 54 77 NE10 30.12S SAINT SIMONS PTCLDY 63 56 78 NE13 30.11S $$ SCZ027-028-034-036>038-045-046-048>050-GAZ119-141-172300- ...LAKE AND SUPPLEMENTAL COASTAL OBSERVATIONS... STATION/POSITION TIME TEMP WIND PRES WAVE SWELL AIR SEA DIR/SP/G HT/PER HT/PER/DIR (UTC) (F) (DEG/KT/KT) (MB) (FT/S) (FT/S/D) WINYAH BAY 2145 56 120/ 3 1021.0S LAKE MURRAY 2150 64 180/ 4/ 5 1019.6S ACE BASIN NERRS 2130 61 110/ 2 1021.0S FORT PULASKI NOT AVBL SAPELO ISLAND 2200 62 50/ 7 1020.0 $$ ANZ835-935-AMZ111-154-330-350-352-354-370-450-454-472-172300- ...C-MAN AND BUOY OBSERVATIONS... STATION/POSITION TIME TEMP WIND PRES WAVE SWELL AIR SEA DIR/SP/G HT/PER HT/PER/DIR (UTC) (F) (DEG/KT/KT) (MB) (FT/S) (FT/S/D) BUOY 41004 2210 63 76 40/ 10/ 16 1020.1 BUOY 41008 2150 65 68 50/ 17/ 21 1019.2R 5/ 5 2/120/ 9 FOLLY BEACH CMAN 2200 58 80/ 10/ 11 1021.5F CAPERS NEARSHORE 2208 55 63 80/ 12/ 16 1020.7F FRIPP NEARSHORE 2208 58 62 60/ 12/ 17 1019.6R STATION/POSITION TIME TEMP WIND PRES WAVE SWELL AIR SEA DIR/SP/G HT/PER HT/PER/DIR (UTC) (F) (DEG/KT/KT) (MB) (FT/S) (FT/S/D) 5E ST. MARYS GA 2200 67 N/A 4/ 4 2/ 80/11 FRYING PAN BUOY 2210 58 72 50/ 10/ 14 1020.7 BUOY 41025 2210 54 64 360/ 14/ 17 1021.1 CAPE LOOKOUT NC 2200 53 20/ 6/ 7 1021.9R BUOY 41002 2150 68 77 30/ 12/ 16 1018.1R 8/12 7/ 60/12 BUOY 41010 NOT AVBL ST AUGUSTINE FL 2200 67 69 360/ 13/ 14 1018.5F $$

USA.gov is the U.S. government's official web portal to all federal, state and local government web resources and services.